ELECTRON DEB (49471 NORAD) Tracking and Keplerian Element Data

This shows tracking and keplerian element data for the satellite.

Feedback or suggestion? Click here.




ElementValue
Catalog49471
NameELECTRON DEB
Epoch Orbit227
Epoch Day336.75229572
Epoch Year2021
RAAN289.8399
Inclination42.0233
Eccentricity0.001024
Argument of Perigee13.7323
Mean Anonmoly346.6699
Mean Motion15.47230955
Decay Rate-3.09E-06
L11 49471U 21106C 21336.75229572 -.00000309 00000+0 00000+0 0 9990
L22 49471 42.0233 289.8399 0010240 13.7323 346.6699 15.47230955 2270

Live tracking and technical data element details for ELECTRON DEB (NORAD 49471). ELECTRON DEB can be tracked NOW for your location showing map with azimuth and elevation plus other details from your city location.

Track the satellite on the map from your city or location and see movement details for azimuth, elevation, latitude, longitude, range, height, and movement on the map or in text.







IsCatalogInMostPopularTable: catalog: 49471, numindb: 1
Update: records affected: 1



GetName: 49471 ELECTRON DEB

Hit Count: updated at: Wed, 08 Dec 2021 15:22:00 GMT